TimeEDT,TemperatureF,Dew PointF,Humidity,Sea Level PressureIn,VisibilityMPH,Wind Direction,Wind SpeedMPH,Gust SpeedMPH,PrecipitationIn,Events,Conditions,WindDirDegrees,DateUTC
12:15 AM,66.2,66.2,100,30.13,6.0,Calm,Calm,-,N/A,,Mist,0,2013-09-20 04:15:00
12:35 AM,64.4,64.4,100,30.13,4.0,Calm,Calm,-,N/A,,Mist,0,2013-09-20 04:35:00
12:55 AM,64.4,64.4,100,30.13,3.0,Calm,Calm,-,N/A,,Mist,0,2013-09-20 04:55:00
1:15 AM,64.4,64.4,100,30.14,3.0,Calm,Calm,-,N/A,,Mist,0,2013-09-20 05:15:00
1:35 AM,64.4,64.4,100,30.14,5.0,Calm,Calm,-,N/A,,Mist,0,2013-09-20 05:35:00
1:55 AM,64.4,64.4,100,30.13,5.0,Calm,Calm,-,N/A,,Mist,0,2013-09-20 05:55:00
2:15 AM,62.6,62.6,100,30.13,3.0,Calm,Calm,-,N/A,,Mist,0,2013-09-20 06:15:00
2:35 AM,62.6,62.6,100,30.13,0.5,Calm,Calm,-,N/A,Fog,Fog,0,2013-09-20 06:35:00
2:55 AM,62.6,62.6,100,30.13,0.2,Calm,Calm,-,N/A,Fog,Fog,0,2013-09-20 06:55:00
3:15 AM,62.6,62.6,100,30.13,0.2,Calm,Calm,-,N/A,Fog,Fog,0,2013-09-20 07:15:00
3:35 AM,62.6,62.6,100,30.13,0.2,Calm,Calm,-,N/A,Fog,Fog,0,2013-09-20 07:35:00
3:55 AM,64.4,64.4,100,30.12,0.2,Calm,Calm,-,N/A,Fog,Fog,0,2013-09-20 07:55:00
4:15 AM,62.6,62.6,100,30.12,0.2,Calm,Calm,-,N/A,Fog,Fog,0,2013-09-20 08:15:00
4:35 AM,64.4,64.4,100,30.12,0.2,Calm,Calm,-,N/A,Fog,Fog,0,2013-09-20 08:35:00
4:55 AM,62.6,62.6,100,30.12,0.2,Calm,Calm,-,N/A,Fog,Fog,0,2013-09-20 08:55:00
5:15 AM,62.6,62.6,100,30.12,0.2,Calm,Calm,-,N/A,Fog,Fog,0,2013-09-20 09:15:00
5:35 AM,62.6,62.6,100,30.12,0.2,Calm,Calm,-,N/A,Fog,Fog,0,2013-09-20 09:35:00
5:55 AM,62.6,62.6,100,30.13,0.2,Calm,Calm,-,N/A,Fog,Fog,0,2013-09-20 09:55:00
6:15 AM,62.6,62.6,100,30.12,0.2,Calm,Calm,-,N/A,Fog,Fog,0,2013-09-20 10:15:00
6:35 AM,62.6,62.6,100,30.12,0.2,Calm,Calm,-,N/A,Fog,Fog,0,2013-09-20 10:35:00
6:55 AM,62.6,62.6,100,30.12,0.2,Calm,Calm,-,N/A,Fog,Fog,0,2013-09-20 10:55:00
7:15 AM,62.6,62.6,100,30.13,0.2,Calm,Calm,-,N/A,Fog,Fog,0,2013-09-20 11:15:00
7:35 AM,62.6,62.6,100,30.13,0.2,Calm,Calm,-,N/A,Fog,Fog,0,2013-09-20 11:35:00
7:55 AM,62.6,62.6,100,30.13,0.2,Calm,Calm,-,N/A,Fog,Fog,0,2013-09-20 11:55:00
8:15 AM,62.6,62.6,100,30.13,0.2,Calm,Calm,-,N/A,Fog,Fog,0,2013-09-20 12:15:00
8:35 AM,62.6,62.6,100,30.14,0.2,Calm,Calm,-,N/A,Fog,Fog,0,2013-09-20 12:35:00
8:55 AM,62.6,62.6,100,30.13,0.2,Calm,Calm,-,N/A,Fog,Fog,0,2013-09-20 12:55:00
9:15 AM,62.6,62.6,100,30.14,0.2,Calm,Calm,-,N/A,Fog,Fog,0,2013-09-20 13:15:00
9:35 AM,62.6,62.6,100,30.14,0.2,Calm,Calm,-,N/A,Fog,Fog,0,2013-09-20 13:35:00
9:55 AM,64.4,64.4,100,30.14,0.8,Calm,Calm,-,N/A,,Overcast,0,2013-09-20 13:55:00
10:15 AM,64.4,64.4,100,30.13,2.0,Calm,Calm,-,N/A,,Overcast,0,2013-09-20 14:15:00
10:35 AM,66.2,66.2,100,30.13,9.0,Calm,Calm,-,N/A,,Mostly Cloudy,0,2013-09-20 14:35:00
10:55 AM,68.0,68.0,100,30.12,10.0,Calm,Calm,-,N/A,,Clear,0,2013-09-20 14:55:00
11:15 AM,71.6,64.4,78,30.12,10.0,SW,6.9,-,N/A,,Clear,230,2013-09-20 15:15:00
11:35 AM,75.2,64.4,69,30.12,10.0,SW,8.1,-,N/A,,Clear,220,2013-09-20 15:35:00
11:55 AM,75.2,64.4,69,30.11,10.0,West,3.5,-,N/A,,Partly Cloudy,280,2013-09-20 15:55:00
12:15 PM,77.0,64.4,65,30.10,10.0,SW,6.9,-,N/A,,Clear,230,2013-09-20 16:15:00
12:35 PM,77.0,64.4,65,30.09,10.0,SW,9.2,-,N/A,,Clear,230,2013-09-20 16:35:00
12:55 PM,78.8,64.4,61,30.09,10.0,SSW,6.9,-,N/A,,Partly Cloudy,210,2013-09-20 16:55:00
1:15 PM,78.8,62.6,57,30.08,10.0,SSW,10.4,-,N/A,,Partly Cloudy,210,2013-09-20 17:15:00
1:35 PM,80.6,62.6,54,30.07,10.0,WSW,6.9,-,N/A,,Clear,240,2013-09-20 17:35:00
1:55 PM,78.8,64.4,61,30.06,10.0,West,4.6,-,N/A,,Mostly Cloudy,270,2013-09-20 17:55:00
2:15 PM,80.6,62.6,54,30.05,10.0,SW,8.1,-,N/A,,Mostly Cloudy,230,2013-09-20 18:15:00
2:35 PM,80.6,62.6,54,30.04,10.0,SSW,8.1,-,N/A,,Partly Cloudy,200,2013-09-20 18:35:00
2:55 PM,80.6,62.6,54,30.04,10.0,SW,6.9,-,N/A,,Partly Cloudy,230,2013-09-20 18:55:00
3:15 PM,80.6,62.6,54,30.02,10.0,Calm,Calm,-,N/A,,Partly Cloudy,0,2013-09-20 19:15:00
3:35 PM,82.4,62.6,51,30.01,10.0,Calm,Calm,-,N/A,,Clear,0,2013-09-20 19:35:00
3:55 PM,80.6,64.4,58,30.01,10.0,South,6.9,-,N/A,,Scattered Clouds,190,2013-09-20 19:55:00
4:15 PM,80.6,64.4,58,30.00,10.0,South,6.9,-,N/A,,Clear,190,2013-09-20 20:15:00
4:35 PM,80.6,62.6,54,29.99,10.0,South,8.1,-,N/A,,Clear,170,2013-09-20 20:35:00
4:55 PM,80.6,62.6,54,29.99,10.0,South,4.6,-,N/A,,Partly Cloudy,170,2013-09-20 20:55:00
5:15 PM,80.6,62.6,54,29.98,10.0,South,5.8,-,N/A,,Partly Cloudy,190,2013-09-20 21:15:00
5:35 PM,80.6,62.6,54,29.97,10.0,Calm,Calm,-,N/A,,Clear,0,2013-09-20 21:35:00
5:55 PM,80.6,62.6,54,29.97,10.0,Calm,Calm,-,N/A,,Clear,0,2013-09-20 21:55:00
6:15 PM,80.6,62.6,54,29.98,10.0,SSW,4.6,-,N/A,,Clear,200,2013-09-20 22:15:00
6:35 PM,78.8,62.6,57,29.97,10.0,Calm,Calm,-,N/A,,Clear,0,2013-09-20 22:35:00
6:55 PM,78.8,64.4,61,29.97,10.0,Calm,Calm,-,N/A,,Clear,0,2013-09-20 22:55:00
7:15 PM,77.0,64.4,65,29.97,10.0,Calm,Calm,-,N/A,,Clear,0,2013-09-20 23:15:00
7:35 PM,75.2,66.2,73,29.96,10.0,Calm,Calm,-,N/A,,Clear,0,2013-09-20 23:35:00
7:55 PM,71.6,66.2,83,29.96,10.0,Calm,Calm,-,N/A,,Clear,0,2013-09-20 23:55:00
8:15 PM,68.0,66.2,94,29.96,10.0,Calm,Calm,-,N/A,,Unknown,0,2013-09-21 00:15:00
8:35 PM,68.0,66.2,94,29.97,10.0,Calm,Calm,-,N/A,,Unknown,0,2013-09-21 00:35:00
8:55 PM,68.0,66.2,94,29.97,10.0,Calm,Calm,-,N/A,,Unknown,0,2013-09-21 00:55:00
9:15 PM,66.2,66.2,100,29.96,10.0,Calm,Calm,-,N/A,,Unknown,0,2013-09-21 01:15:00
9:35 PM,66.2,66.2,100,29.96,10.0,Calm,Calm,-,N/A,,Unknown,0,2013-09-21 01:35:00
9:55 PM,66.2,64.4,94,29.96,10.0,Calm,Calm,-,N/A,,Unknown,0,2013-09-21 01:55:00
10:15 PM,64.4,64.4,100,29.96,10.0,Calm,Calm,-,N/A,,Unknown,0,2013-09-21 02:15:00
10:35 PM,64.4,64.4,100,29.96,10.0,Calm,Calm,-,N/A,,Unknown,0,2013-09-21 02:35:00
10:55 PM,64.4,64.4,100,29.95,8.0,Calm,Calm,-,N/A,,Unknown,0,2013-09-21 02:55:00
11:15 PM,64.4,64.4,100,29.95,7.0,Calm,Calm,-,N/A,,Unknown,0,2013-09-21 03:15:00
11:35 PM,62.6,62.6,100,29.95,6.0,Calm,Calm,-,N/A,,Mist,0,2013-09-21 03:35:00
11:55 PM,62.6,62.6,100,29.95,5.0,Calm,Calm,-,N/A,,Mist,0,2013-09-21 03:55:00